Birmingham, United Kingdom

12:08 PM BST on April 29, 2017 (GMT +0100)
Birmingham

Weather History for EGBB - February, 2014

Change the Weather History Date:

Thursday, February 13, 2014

  Actual Average Record
Temperature  
Mean Temperature 40 °F -  
Max Temperature 44 °F 45 °F 60 °F (1998)
Min Temperature 35 °F 33 °F 26 °F (2000)
Degree Days  
Heating Degree Days 26    
Moisture  
Dew Point 32 °F    
Average Humidity 77    
Maximum Humidity 93    
Minimum Humidity 61    
Precipitation  
Precipitation 0.00 in 0.06 in - ()
Sea Level Pressure  
Sea Level Pressure 29.20 in    
Wind  
Wind Speed 10 mph ()    
Max Wind Speed 14 mph    
Max Gust Speed 22 mph    
Visibility 6.2 miles    
Events      
Averages and records for this station are not official NWS values.
T = Trace of Precipitation, MM = Missing Value Source: Averaged Metar Reports

Daily Weather History Graph

Daily Weather History Graph

Search for Another Location

Airport or City:

Trip Planner

Search our weather history database for the weather conditions in past years. The results will help you decide how hot, cold, wet, or windy it might be!

Date:

Astronomy

Feb. 13, 2014 Rise Set
Actual Time 7:27 AM GMT 5:15 PM GMT
Civil Twilight 6:51 AM GMT 5:51 PM GMT
Nautical Twilight 6:11 AM GMT 6:31 PM GMT
Astronomical Twilight 5:32 AM GMT 7:11 PM GMT
Moon 4:09 PM GMT (2/13) 6:15 AM GMT (2/13)
Length of Visible Light 10h 59m
Length of Day
9h 48m
Waxing Gibbous, 98% of the Moon is Illuminated
Feb 13
Waxing Gibbous
Feb 14
Full
Feb 22
Last Quarter
Mar 1
New
Mar 8
First Quarter

Hourly Weather History & Observations

Time (GMT) Temp. Windchill Dew Point Humidity Pressure Visibility Wind Dir Wind Speed Gust Speed Precip Events Conditions
12:20 AM 41.0 °F 33.9 °F 30.2 °F 65% 29.09 in 6.2 mi SW 12.7 mph - N/A   Partly Cloudy
12:50 AM 39.2 °F 31.2 °F 30.2 °F 70% 29.09 in 6.2 mi SW 13.8 mph - N/A   Unknown
1:20 AM 37.4 °F 29.8 °F 30.2 °F 75% 29.09 in 6.2 mi SW 11.5 mph - N/A   Unknown
1:50 AM 37.4 °F 30.3 °F 30.2 °F 75% 29.09 in 6.2 mi SW 10.4 mph - N/A   Scattered Clouds
2:20 AM 37.4 °F 29.8 °F 30.2 °F 75% 29.09 in 6.2 mi SW 11.5 mph - N/A   Unknown
2:50 AM 37.4 °F 29.8 °F 30.2 °F 75% 29.09 in 6.2 mi SW 11.5 mph - N/A   Unknown
3:20 AM 37.4 °F 29.8 °F 30.2 °F 75% 29.09 in 6.2 mi SW 11.5 mph - N/A   Partly Cloudy
3:50 AM 37.4 °F 30.3 °F 32.0 °F 81% 29.09 in 6.2 mi SW 10.4 mph - N/A   Partly Cloudy
4:20 AM 37.4 °F 30.3 °F 32.0 °F 81% 29.09 in 6.2 mi SW 10.4 mph - N/A   Partly Cloudy
4:50 AM 37.4 °F 30.3 °F 33.8 °F 87% 29.09 in 6.2 mi SSW 10.4 mph - N/A   Partly Cloudy
5:20 AM 37.4 °F 29.8 °F 32.0 °F 81% 29.09 in 6.2 mi SW 11.5 mph - N/A   Mostly Cloudy
5:50 AM 35.6 °F 28.0 °F 33.8 °F 93% 29.12 in 6.2 mi SW 10.4 mph - N/A   Scattered Clouds
6:20 AM 35.6 °F 28.6 °F 33.8 °F 93% 29.12 in 6.2 mi SSW 9.2 mph - N/A   Partly Cloudy
6:50 AM 35.6 °F 28.6 °F 33.8 °F 93% 29.12 in - SW 9.2 mph - N/A   Clear
7:20 AM 35.6 °F 29.2 °F 33.8 °F 93% 29.12 in - SW 8.1 mph - N/A   Clear
7:50 AM 35.6 °F 28.0 °F 33.8 °F 93% 29.12 in - SW 10.4 mph - N/A   Clear
8:20 AM 35.6 °F 28.0 °F 33.8 °F 93% 29.12 in - SSW 10.4 mph - N/A   Clear
8:50 AM 35.6 °F 28.0 °F 32.0 °F 87% 29.09 in - SW 10.4 mph - N/A   Clear
9:20 AM 37.4 °F 31.4 °F 32.0 °F 81% 29.12 in - SW 8.1 mph - N/A   Clear
9:50 AM 39.2 °F 33.6 °F 33.8 °F 81% 29.12 in - SW 8.1 mph - N/A   Clear
10:20 AM 39.2 °F 32.5 °F 33.8 °F 81% 29.12 in 6.2 mi SW 10.4 mph - N/A   Partly Cloudy
10:50 AM 41.0 °F 34.7 °F 33.8 °F 76% 29.12 in 6.2 mi WSW 10.4 mph - N/A   Partly Cloudy
11:20 AM 42.8 °F 37.5 °F 33.8 °F 70% 29.15 in 6.2 mi WSW 9.2 mph - N/A   Scattered Clouds
11:50 AM 41.0 °F 34.3 °F 32.0 °F 70% 29.15 in 6.2 mi West 11.5 mph - N/A   Partly Cloudy
12:20 PM 42.8 °F 37.5 °F 32.0 °F 66% 29.18 in 6.2 mi WSW 9.2 mph - N/A   Partly Cloudy
12:50 PM 42.8 °F 36.2 °F 32.0 °F 66% 29.18 in 6.2 mi WSW 12.7 mph - N/A   Scattered Clouds
1:20 PM 42.8 °F 37.0 °F 32.0 °F 66% 29.18 in 6.2 mi WSW 10.4 mph - N/A   Mostly Cloudy
1:50 PM 42.8 °F 36.2 °F 32.0 °F 66% 29.18 in 6.2 mi WSW 12.7 mph - N/A   Mostly Cloudy
2:20 PM 44.6 °F 39.7 °F 35.6 °F 71% 29.21 in 6.2 mi West 9.2 mph - N/A   Mostly Cloudy
2:50 PM 42.8 °F 37.0 °F 32.0 °F 66% 29.21 in 6.2 mi West 10.4 mph 21.9 mph N/A   Mostly Cloudy
3:20 PM 42.8 °F 36.6 °F 32.0 °F 66% 29.24 in 6.2 mi West 11.5 mph - N/A   Scattered Clouds
3:50 PM 44.6 °F 40.7 °F 33.8 °F 66% 29.24 in 6.2 mi SW 6.9 mph - N/A   Scattered Clouds
4:20 PM 44.6 °F 38.4 °F 32.0 °F 61% 29.24 in 6.2 mi WSW 12.7 mph - N/A   Scattered Clouds
4:50 PM 42.8 °F 37.0 °F 32.0 °F 66% 29.27 in 6.2 mi SW 10.4 mph - N/A   Unknown
5:20 PM 42.8 °F 37.0 °F 32.0 °F 66% 29.27 in 6.2 mi SW 10.4 mph - N/A   Unknown
5:50 PM 41.0 °F 35.2 °F 32.0 °F 70% 29.30 in 6.2 mi SW 9.2 mph - N/A   Scattered Clouds
6:20 PM 41.0 °F 35.8 °F 32.0 °F 70% 29.30 in - SW 8.1 mph - N/A   Clear
6:50 PM 41.0 °F 35.8 °F 32.0 °F 70% 29.30 in - SW 8.1 mph - N/A   Clear
7:20 PM 41.0 °F 34.7 °F 32.0 °F 70% 29.33 in - SW 10.4 mph - N/A   Clear
7:50 PM 41.0 °F 35.2 °F 32.0 °F 70% 29.33 in 6.2 mi SW 9.2 mph - N/A   Unknown
8:20 PM 39.2 °F 33.0 °F 32.0 °F 75% 29.36 in 6.2 mi SW 9.2 mph - N/A   Scattered Clouds
8:50 PM 39.2 °F 33.6 °F 33.8 °F 81% 29.36 in 6.2 mi SW 8.1 mph - N/A   Partly Cloudy
9:20 PM 39.2 °F 33.6 °F 33.8 °F 81% 29.39 in 6.2 mi SW 8.1 mph - N/A   Partly Cloudy
9:50 PM 37.4 °F 30.8 °F 33.8 °F 87% 29.39 in - SW 9.2 mph - N/A   Clear
10:20 PM 37.4 °F 30.8 °F 33.8 °F 87% 29.39 in - SW 9.2 mph - N/A   Clear
10:50 PM 37.4 °F 31.4 °F 32.0 °F 81% 29.39 in - SW 8.1 mph - N/A   Clear
11:20 PM 37.4 °F 30.8 °F 33.8 °F 87% 29.39 in - SSW 9.2 mph - N/A   Clear
11:50 PM 37.4 °F 30.8 °F 33.8 °F 87% 29.42 in - SW 9.2 mph - N/A   Clear